Time,TemperatureF,DewpointF,PressureIn,WindDirection,WindDirectionDegrees,WindSpeedMPH,WindSpeedGustMPH,Humidity,HourlyPrecipIn,Conditions,Clouds,dailyrainin,SoftwareType,DateUTC
2013-09-23 00:00:00,66.4,53.0,29.54,South,180,0.0,-999.0,62,-99.99,,,0.00,Acu-Link.com,2013-09-23 05:00:00,
2013-09-23 00:16:00,66.0,52.2,29.54,SSE,157,0.0,-999.0,61,-99.99,,,0.00,Acu-Link.com,2013-09-23 05:16:00,
2013-09-23 00:31:00,65.7,52.8,29.54,NE,45,0.0,-999.0,63,-99.99,,,0.00,Acu-Link.com,2013-09-23 05:31:00,
2013-09-23 00:46:00,64.6,53.0,29.54,West,270,0.0,-999.0,66,-99.99,,,0.00,Acu-Link.com,2013-09-23 05:46:00,
2013-09-23 01:02:00,63.7,52.9,29.54,ENE,67,0.0,-999.0,68,-99.99,,,0.00,Acu-Link.com,2013-09-23 06:02:00,
2013-09-23 01:17:00,63.1,53.2,29.55,ESE,112,0.0,-999.0,70,-99.99,,,0.00,Acu-Link.com,2013-09-23 06:17:00,
2013-09-23 01:32:00,62.2,53.1,29.55,East,90,0.0,-999.0,72,-99.99,,,0.00,Acu-Link.com,2013-09-23 06:32:00,
2013-09-23 01:47:00,61.7,53.0,29.54,East,90,0.0,-999.0,73,-99.99,,,0.00,Acu-Link.com,2013-09-23 06:47:00,
2013-09-23 02:02:00,61.7,53.7,29.54,North,0,0.0,-999.0,75,-99.99,,,0.00,Acu-Link.com,2013-09-23 07:02:00,
2013-09-23 02:18:00,61.7,54.1,29.54,NW,315,0.0,-999.0,76,-99.99,,,0.00,Acu-Link.com,2013-09-23 07:18:00,
2013-09-23 02:33:00,61.2,53.9,29.54,WNW,292,0.0,-999.0,77,-99.99,,,0.00,Acu-Link.com,2013-09-23 07:33:00,
2013-09-23 02:48:00,60.8,54.2,29.55,NNE,22,0.0,-999.0,79,-99.99,,,0.00,Acu-Link.com,2013-09-23 07:48:00,
2013-09-23 03:04:00,60.1,53.9,29.55,NNE,22,0.0,-999.0,80,-99.99,,,0.00,Acu-Link.com,2013-09-23 08:04:00,
2013-09-23 03:20:00,59.9,53.7,29.55,ENE,67,0.0,-999.0,80,-99.99,,,0.00,Acu-Link.com,2013-09-23 08:20:00,
2013-09-23 03:35:00,60.1,53.6,29.55,SSW,202,0.0,-999.0,79,-99.99,,,0.00,Acu-Link.com,2013-09-23 08:35:00,
2013-09-23 03:50:00,60.6,53.7,29.54,West,270,0.0,-999.0,78,-99.99,,,0.00,Acu-Link.com,2013-09-23 08:50:00,
2013-09-23 04:05:00,60.6,53.7,29.54,WNW,292,0.0,-999.0,78,-99.99,,,0.00,Acu-Link.com,2013-09-23 09:05:00,
2013-09-23 04:20:00,60.6,53.7,29.54,NNE,22,0.0,-999.0,78,-99.99,,,0.00,Acu-Link.com,2013-09-23 09:20:00,
2013-09-23 04:35:00,60.1,53.6,29.53,ESE,112,0.0,-999.0,79,-99.99,,,0.00,Acu-Link.com,2013-09-23 09:35:00,
2013-09-23 04:51:00,61.0,53.4,29.54,SSE,157,3.2,-999.0,76,-99.99,,,0.00,Acu-Link.com,2013-09-23 09:51:00,
2013-09-23 05:06:00,61.2,53.9,29.54,SSE,157,0.0,-999.0,77,-99.99,,,0.00,Acu-Link.com,2013-09-23 10:06:00,
2013-09-23 05:21:00,61.2,53.9,29.54,SSW,202,0.0,-999.0,77,-99.99,,,0.00,Acu-Link.com,2013-09-23 10:21:00,
2013-09-23 05:37:00,60.8,53.5,29.54,SSE,157,0.0,-999.0,77,-99.99,,,0.00,Acu-Link.com,2013-09-23 10:37:00,
2013-09-23 05:52:00,60.3,53.8,29.54,West,270,0.0,-999.0,79,-99.99,,,0.00,Acu-Link.com,2013-09-23 10:52:00,
2013-09-23 06:07:00,60.1,53.9,29.54,NNE,22,0.0,-999.0,80,-99.99,,,0.00,Acu-Link.com,2013-09-23 11:07:00,
2013-09-23 06:22:00,60.8,53.9,29.54,WSW,247,0.0,-999.0,78,-99.99,,,0.00,Acu-Link.com,2013-09-23 11:22:00,
2013-09-23 06:38:00,61.2,53.9,29.54,WSW,247,3.7,-999.0,77,-99.99,,,0.00,Acu-Link.com,2013-09-23 11:38:00,
2013-09-23 06:53:00,61.9,54.2,29.55,South,180,2.7,-999.0,76,-99.99,,,0.00,Acu-Link.com,2013-09-23 11:53:00,
2013-09-23 07:08:00,61.5,54.2,29.55,SE,135,0.0,-999.0,77,-99.99,,,0.00,Acu-Link.com,2013-09-23 12:08:00,
2013-09-23 07:24:00,61.0,54.1,29.56,South,180,0.0,-999.0,78,-99.99,,,0.00,Acu-Link.com,2013-09-23 12:24:00,
2013-09-23 07:39:00,61.3,54.4,29.56,ESE,112,1.7,-999.0,78,-99.99,,,0.00,Acu-Link.com,2013-09-23 12:39:00,
2013-09-23 07:54:00,61.9,54.6,29.56,ESE,112,1.1,-999.0,77,-99.99,,,0.00,Acu-Link.com,2013-09-23 12:54:00,
2013-09-23 08:09:00,63.1,55.0,29.57,South,180,2.2,-999.0,75,-99.99,,,0.00,Acu-Link.com,2013-09-23 13:09:00,
2013-09-23 08:24:00,66.2,56.1,29.57,SSE,157,1.7,-999.0,70,-99.99,,,0.00,Acu-Link.com,2013-09-23 13:24:00,
2013-09-23 08:40:00,69.6,56.9,29.56,SE,135,0.0,-999.0,64,-99.99,,,0.00,Acu-Link.com,2013-09-23 13:40:00,
2013-09-23 08:55:00,69.3,55.7,29.57,South,180,3.7,-999.0,62,-99.99,,,0.00,Acu-Link.com,2013-09-23 13:55:00,
2013-09-23 09:10:00,70.5,55.9,29.57,SSE,157,7.3,-999.0,60,-99.99,,,0.00,Acu-Link.com,2013-09-23 14:10:00,
2013-09-23 09:26:00,71.6,55.5,29.57,SSE,157,4.7,-999.0,57,-99.99,,,0.00,Acu-Link.com,2013-09-23 14:26:00,
2013-09-23 09:41:00,72.5,55.4,29.57,SE,135,4.2,-999.0,55,-99.99,,,0.00,Acu-Link.com,2013-09-23 14:41:00,
2013-09-23 09:56:00,74.7,55.9,29.57,NE,45,5.3,-999.0,52,-99.99,,,0.00,Acu-Link.com,2013-09-23 14:56:00,
2013-09-23 10:11:00,75.6,56.7,29.57,ESE,112,5.8,-999.0,52,-99.99,,,0.00,Acu-Link.com,2013-09-23 15:11:00,
2013-09-23 10:26:00,76.3,56.3,29.57,SSE,157,11.9,-999.0,50,-99.99,,,0.00,Acu-Link.com,2013-09-23 15:26:00,
2013-09-23 10:41:00,76.6,56.0,29.58,South,180,4.7,-999.0,49,-99.99,,,0.00,Acu-Link.com,2013-09-23 15:41:00,
2013-09-23 10:57:00,77.7,55.8,29.57,South,180,4.7,-999.0,47,-99.99,,,0.00,Acu-Link.com,2013-09-23 15:57:00,
2013-09-23 11:12:00,78.6,56.7,29.57,SE,135,3.2,-999.0,47,-99.99,,,0.00,Acu-Link.com,2013-09-23 16:12:00,
2013-09-23 11:27:00,79.9,56.6,29.57,West,270,6.8,-999.0,45,-99.99,,,0.00,Acu-Link.com,2013-09-23 16:27:00,
2013-09-23 11:42:00,81.0,56.4,29.56,SE,135,7.3,-999.0,43,-99.99,,,0.00,Acu-Link.com,2013-09-23 16:42:00,
2013-09-23 11:57:00,81.1,56.5,29.55,South,180,6.8,-999.0,43,-99.99,,,0.00,Acu-Link.com,2013-09-23 16:57:00,
2013-09-23 12:12:00,82.6,56.5,29.54,South,180,4.7,-999.0,41,-99.99,,,0.00,Acu-Link.com,2013-09-23 17:12:00,
2013-09-23 12:28:00,82.2,56.1,29.53,SSW,202,3.2,-999.0,41,-99.99,,,0.00,Acu-Link.com,2013-09-23 17:28:00,
2013-09-23 12:43:00,83.1,56.9,29.52,South,180,2.2,-999.0,41,-99.99,,,0.00,Acu-Link.com,2013-09-23 17:43:00,
2013-09-23 12:58:00,84.2,56.5,29.52,SSE,157,5.8,-999.0,39,-99.99,,,0.00,Acu-Link.com,2013-09-23 17:58:00,
2013-09-23 13:13:00,83.8,56.9,29.51,SSW,202,3.7,-999.0,40,-99.99,,,0.00,Acu-Link.com,2013-09-23 18:13:00,
2013-09-23 13:28:00,85.3,57.5,29.50,SSW,202,5.3,-999.0,39,-99.99,,,0.00,Acu-Link.com,2013-09-23 18:28:00,
2013-09-23 13:43:00,85.5,56.2,29.50,SE,135,4.2,-999.0,37,-99.99,,,0.00,Acu-Link.com,2013-09-23 18:43:00,
2013-09-23 13:59:00,86.9,56.7,29.49,NNE,22,4.7,-999.0,36,-99.99,,,0.00,Acu-Link.com,2013-09-23 18:59:00,
2013-09-23 14:14:00,87.1,56.1,29.48,SE,135,3.2,-999.0,35,-99.99,,,0.00,Acu-Link.com,2013-09-23 19:14:00,
2013-09-23 14:29:00,87.3,57.0,29.48,ESE,112,5.8,-999.0,36,-99.99,,,0.00,Acu-Link.com,2013-09-23 19:29:00,
2013-09-23 14:44:00,88.3,56.3,29.46,SSW,202,6.8,-999.0,34,-99.99,,,0.00,Acu-Link.com,2013-09-23 19:44:00,
2013-09-23 14:59:00,88.2,56.3,29.46,SE,135,5.3,-999.0,34,-99.99,,,0.00,Acu-Link.com,2013-09-23 19:59:00,
2013-09-23 15:15:00,87.6,56.5,29.45,SSE,157,6.3,-999.0,35,-99.99,,,0.00,Acu-Link.com,2013-09-23 20:15:00,
2013-09-23 15:30:00,88.0,54.4,29.45,East,90,2.7,-999.0,32,-99.99,,,0.00,Acu-Link.com,2013-09-23 20:30:00,
2013-09-23 15:45:00,88.9,54.3,29.44,ESE,112,3.7,-999.0,31,-99.99,,,0.00,Acu-Link.com,2013-09-23 20:45:00,
2013-09-23 16:01:00,86.9,54.3,29.44,SSW,202,2.7,-999.0,33,-99.99,,,0.00,Acu-Link.com,2013-09-23 21:01:00,
2013-09-23 16:16:00,86.7,53.3,29.43,SW,225,3.2,-999.0,32,-99.99,,,0.00,Acu-Link.com,2013-09-23 21:16:00,
2013-09-23 16:31:00,86.9,55.1,29.42,South,180,2.7,-999.0,34,-99.99,,,0.00,Acu-Link.com,2013-09-23 21:31:00,
2013-09-23 16:46:00,86.7,54.1,29.43,South,180,3.7,-999.0,33,-99.99,,,0.00,Acu-Link.com,2013-09-23 21:46:00,
2013-09-23 17:01:00,86.2,53.7,29.43,WNW,292,0.0,-999.0,33,-99.99,,,0.00,Acu-Link.com,2013-09-23 22:01:00,
2013-09-23 17:17:00,86.2,52.8,29.45,ENE,67,5.3,-999.0,32,-99.99,,,0.00,Acu-Link.com,2013-09-23 22:17:00,
2013-09-23 17:32:00,86.7,53.3,29.44,SSE,157,5.8,-999.0,32,-99.99,,,0.00,Acu-Link.com,2013-09-23 22:32:00,
2013-09-23 17:47:00,86.0,52.7,29.45,South,180,5.8,-999.0,32,-99.99,,,0.00,Acu-Link.com,2013-09-23 22:47:00,
2013-09-23 18:02:00,85.5,52.2,29.45,SE,135,3.7,-999.0,32,-99.99,,,0.00,Acu-Link.com,2013-09-23 23:02:00,
2013-09-23 18:17:00,84.7,51.5,29.44,NW,315,4.2,-999.0,32,-99.99,,,0.00,Acu-Link.com,2013-09-23 23:17:00,
2013-09-23 18:33:00,84.2,52.8,29.43,South,180,2.2,-999.0,34,-99.99,,,0.00,Acu-Link.com,2013-09-23 23:33:00,
2013-09-23 18:48:00,83.7,52.3,29.45,South,180,4.2,-999.0,34,-99.99,,,0.00,Acu-Link.com,2013-09-23 23:48:00,
2013-09-23 19:03:00,82.8,51.5,29.46,South,180,1.7,-999.0,34,-99.99,,,0.00,Acu-Link.com,2013-09-24 00:03:00,
2013-09-23 19:18:00,81.7,52.1,29.46,SSE,157,2.2,-999.0,36,-99.99,,,0.00,Acu-Link.com,2013-09-24 00:18:00,
2013-09-23 19:33:00,80.1,52.9,29.46,South,180,0.0,-999.0,39,-99.99,,,0.00,Acu-Link.com,2013-09-24 00:33:00,
2013-09-23 19:48:00,78.6,54.2,29.46,West,270,0.0,-999.0,43,-99.99,,,0.00,Acu-Link.com,2013-09-24 00:48:00,
2013-09-23 20:04:00,77.0,55.2,29.46,West,270,0.0,-999.0,47,-99.99,,,0.00,Acu-Link.com,2013-09-24 01:04:00,
2013-09-23 20:19:00,75.6,56.2,29.47,West,270,0.0,-999.0,51,-99.99,,,0.00,Acu-Link.com,2013-09-24 01:19:00,
2013-09-23 20:34:00,74.3,55.0,29.47,WNW,292,0.0,-999.0,51,-99.99,,,0.00,Acu-Link.com,2013-09-24 01:34:00,
2013-09-23 20:49:00,73.6,55.9,29.49,SSE,157,0.0,-999.0,54,-99.99,,,0.00,Acu-Link.com,2013-09-24 01:49:00,
2013-09-23 21:05:00,72.7,56.1,29.50,NNE,22,0.0,-999.0,56,-99.99,,,0.00,Acu-Link.com,2013-09-24 02:05:00,
2013-09-23 21:20:00,72.5,56.9,29.51,North,0,0.0,-999.0,58,-99.99,,,0.00,Acu-Link.com,2013-09-24 02:20:00,
2013-09-23 21:35:00,72.0,56.4,29.51,North,0,0.0,-999.0,58,-99.99,,,0.00,Acu-Link.com,2013-09-24 02:35:00,
2013-09-23 21:51:00,71.1,56.5,29.51,NE,45,1.7,-999.0,60,-99.99,,,0.00,Acu-Link.com,2013-09-24 02:51:00,
2013-09-23 22:06:00,70.9,56.8,29.52,West,270,0.0,-999.0,61,-99.99,,,0.00,Acu-Link.com,2013-09-24 03:06:00,
2013-09-23 22:21:00,70.5,57.3,29.52,North,0,0.0,-999.0,63,-99.99,,,0.00,Acu-Link.com,2013-09-24 03:21:00,
2013-09-23 22:37:00,70.0,57.3,29.52,WNW,292,0.0,-999.0,64,-99.99,,,0.00,Acu-Link.com,2013-09-24 03:37:00,
2013-09-23 22:52:00,70.9,57.7,29.52,SSE,157,2.7,-999.0,63,-99.99,,,0.00,Acu-Link.com,2013-09-24 03:52:00,
2013-09-23 23:07:00,72.1,58.8,29.52,NNW,337,0.0,-999.0,63,-99.99,,,0.00,Acu-Link.com,2013-09-24 04:07:00,
2013-09-23 23:23:00,70.9,59.0,29.53,North,0,0.0,-999.0,66,-99.99,,,0.00,Acu-Link.com,2013-09-24 04:23:00,
2013-09-23 23:38:00,69.8,59.2,29.53,NE,45,0.0,-999.0,69,-99.99,,,0.00,Acu-Link.com,2013-09-24 04:38:00,
2013-09-23 23:53:00,69.6,60.2,29.53,WNW,292,0.0,-999.0,72,-99.99,,,0.00,Acu-Link.com,2013-09-24 04:53:00,